Location: Shepherdstown, WV
(39.4326°N, 77.8042°W)
Time: 20:12:32
(UTC-04:00)

Vanguard 1 Rocket - Pass Details

Date: 15 August 2021
Orbit: 650 x 4226 km, 34.3° (Epoch: 19 September)

Event Time Altitude Azimuth Distance (km) Brightness Sun altitude
Rises 07:18:34 0° 236° (SW) 7,757 11.6 9.3°
Reaches altitude 10° 07:23:29 10° 233° (SW) 7,015 11.4 10.3°
Maximum altitude 07:48:49 65° 159° (SSE) 4,360 11.2 15.1°
Drops below altitude 10° 08:09:42 10° 84° (E) 5,986 14.0 19.1°
Sets 08:13:28 0° 81° (E) 6,632 13.4 19.8°
